• In Hungary
  • List of Countries
  • For 7 days
  • Water Temperature
  • Satellite Maps
  • Weather Map
  • News
  • Weather Widgets
  • user-avatar
    Login

    Hourly Weather Stankivtsi

    Today, 24 October, Tuesday

    Time Temperature Precipitation Wind Pressure Humidity
    00:00 +7°C° 0.3 mm 3 mps 718 mmHg 94%
    01:00 +7°C° 0.3 mm 3 mps 719 mmHg 94%
    02:00 +6°C° 0 mm 2 mps 719 mmHg 93%
    03:00 +5°C° 0.2 mm 3 mps 719 mmHg 93%
    04:00 +5°C° 0.2 mm 3 mps 720 mmHg 93%
    05:00 +5°C° 0.2 mm 4 mps 720 mmHg 93%
    06:00 +4°C° 0.3 mm 3 mps 721 mmHg 93%
    07:00 +4°C° 0.3 mm 3 mps 721 mmHg 93%
    08:00 +4°C° 0.3 mm 3 mps 722 mmHg 92%
    09:00 +4°C° 0.1 mm 3 mps 722 mmHg 91%
    10:00 +4°C° 0.1 mm 3 mps 723 mmHg 91%
    11:00 +4°C° 0.1 mm 3 mps 723 mmHg 90%
    12:00 +4°C° 0.1 mm 3 mps 724 mmHg 89%
    13:00 +5°C° 0.1 mm 3 mps 724 mmHg 89%
    14:00 +5°C° 0.1 mm 3 mps 725 mmHg 88%
    15:00 +5°C° 0.1 mm 3 mps 725 mmHg 89%
    16:00 +4°C° 0.1 mm 3 mps 725 mmHg 90%
    17:00 +4°C° 0.1 mm 3 mps 725 mmHg 91%
    18:00 +4°C° 0 mm 3 mps 726 mmHg 91%
    19:00 +4°C° 0 mm 3 mps 726 mmHg 91%
    20:00 +4°C° 0 mm 3 mps 727 mmHg 91%
    21:00 +4°C° 0 mm 3 mps 727 mmHg 91%
    22:00 +5°C° 0 mm 2 mps 727 mmHg 91%
    23:00 +4°C° 0 mm 2 mps 728 mmHg 90%

    Tomorrow, 25 October, Wednesday

    Time Temperature Precipitation Wind Pressure Humidity
    00:00 +4°C° 0 mm 2 mps 728 mmHg 92%
    01:00 +3°C° 0 mm 2 mps 728 mmHg 93%
    02:00 +3°C° 0 mm 2 mps 728 mmHg 94%
    03:00 +2°C° 0 mm 2 mps 728 mmHg 94%
    04:00 +2°C° 0 mm 2 mps 728 mmHg 94%
    05:00 +3°C° 0 mm 1 mps 728 mmHg 93%
    06:00 +3°C° 0 mm 1 mps 728 mmHg 93%
    07:00 +2°C° 0 mm 2 mps 729 mmHg 92%
    08:00 +2°C° 0 mm 2 mps 729 mmHg 91%
    09:00 +4°C° 0 mm 2 mps 729 mmHg 83%
    10:00 +6°C° 0 mm 2 mps 729 mmHg 76%
    11:00 +8°C° 0 mm 2 mps 729 mmHg 68%
    12:00 +9°C° 0 mm 2 mps 729 mmHg 66%
    13:00 +10°C° 0 mm 2 mps 729 mmHg 63%
    14:00 +12°C° 0 mm 2 mps 728 mmHg 60%
    15:00 +10°C° 0 mm 2 mps 728 mmHg 66%
    16:00 +8°C° 0 mm 2 mps 728 mmHg 71%
    17:00 +7°C° 0 mm 2 mps 728 mmHg 76%
    18:00 +7°C° 0 mm 2 mps 728 mmHg 79%
    19:00 +6°C° 0 mm 2 mps 728 mmHg 81%
    20:00 +6°C° 0 mm 2 mps 728 mmHg 83%
    21:00 +6°C° 0 mm 2 mps 728 mmHg 82%
    22:00 +7°C° 0 mm 2 mps 728 mmHg 80%
    23:00 +7°C° 0 mm 2 mps 728 mmHg 78%

    Day after tomorrow, 26 October, Thursday

    Time Temperature Precipitation Wind Pressure Humidity
    00:00 +7°C° 0 mm 2 mps 728 mmHg 76%
    01:00 +8°C° 0 mm 3 mps 728 mmHg 74%
    02:00 +8°C° 0 mm 3 mps 728 mmHg 72%
    03:00 +8°C° 0 mm 3 mps 728 mmHg 74%
    04:00 +8°C° 0 mm 3 mps 728 mmHg 75%
    05:00 +7°C° 0 mm 3 mps 728 mmHg 77%
    06:00 +7°C° 0 mm 3 mps 728 mmHg 77%
    07:00 +8°C° 0 mm 3 mps 728 mmHg 77%
    08:00 +8°C° 0 mm 3 mps 728 mmHg 78%
    09:00 +9°C° 0 mm 3 mps 728 mmHg 76%
    10:00 +9°C° 0 mm 3 mps 728 mmHg 74%
    11:00 +10°C° 0 mm 3 mps 728 mmHg 72%
    12:00 +11°C° 0 mm 4 mps 728 mmHg 71%
    13:00 +12°C° 0 mm 4 mps 728 mmHg 69%
    14:00 +13°C° 0 mm 4 mps 728 mmHg 68%
    15:00 +12°C° 0 mm 3 mps 727 mmHg 73%
    16:00 +11°C° 0 mm 3 mps 727 mmHg 77%
    17:00 +10°C° 0 mm 2 mps 727 mmHg 82%
    18:00 +10°C° 0 mm 3 mps 727 mmHg 84%
    19:00 +9°C° 0 mm 3 mps 727 mmHg 85%
    20:00 +9°C° 0 mm 3 mps 727 mmHg 87%
    21:00 +9°C° 0 mm 3 mps 727 mmHg 86%
    22:00 +9°C° 0 mm 3 mps 726 mmHg 85%
    23:00 +9°C° 0 mm 3 mps 726 mmHg 84%

    27 October, Friday

    Time Temperature Precipitation Wind Pressure Humidity
    00:00 +9°C° 0 mm 3 mps 726 mmHg 86%
    01:00 +9°C° 0 mm 3 mps 726 mmHg 87%
    02:00 +9°C° 0 mm 3 mps 725 mmHg 88%
    03:00 +9°C° 0.1 mm 3 mps 725 mmHg 88%
    04:00 +9°C° 0.1 mm 3 mps 724 mmHg 88%
    05:00 +9°C° 0.1 mm 3 mps 724 mmHg 88%
    06:00 +9°C° 1 mm 3 mps 723 mmHg 90%
    07:00 +9°C° 1 mm 3 mps 723 mmHg 91%
    08:00 +9°C° 1 mm 3 mps 722 mmHg 92%
    09:00 +9°C° 0.5 mm 3 mps 722 mmHg 91%
    10:00 +9°C° 0.5 mm 3 mps 721 mmHg 90%
    11:00 +10°C° 0.5 mm 3 mps 721 mmHg 89%
    12:00 +10°C° 1.1 mm 3 mps 720 mmHg 90%
    13:00 +9°C° 1.1 mm 3 mps 719 mmHg 91%
    14:00 +9°C° 1.1 mm 3 mps 718 mmHg 92%
    15:00 +9°C° 0.6 mm 2 mps 718 mmHg 93%
    16:00 +9°C° 0.6 mm 2 mps 717 mmHg 94%
    17:00 +10°C° 0.6 mm 1 mps 717 mmHg 95%
    18:00 +9°C° 2.7 mm 2 mps 716 mmHg 95%
    19:00 +8°C° 2.7 mm 3 mps 716 mmHg 96%
    20:00 +8°C° 2.7 mm 3 mps 715 mmHg 96%
    21:00 +7°C° 1.8 mm 3 mps 715 mmHg 95%
    22:00 +7°C° 1.8 mm 3 mps 715 mmHg 94%
    23:00 +7°C° 1.8 mm 3 mps 715 mmHg 93%

    28 October, Saturday

    Time Temperature Precipitation Wind Pressure Humidity
    00:00 +7°C° 0.6 mm 3 mps 715 mmHg 93%
    01:00 +7°C° 0.6 mm 3 mps 716 mmHg 93%
    02:00 +5°C° 0.6 mm 3 mps 716 mmHg 92%
    03:00 +5°C° 0.2 mm 3 mps 716 mmHg 92%
    04:00 +5°C° 0.2 mm 3 mps 716 mmHg 92%
    05:00 +5°C° 0.2 mm 3 mps 716 mmHg 92%
    06:00 +5°C° 0.2 mm 3 mps 716 mmHg 91%
    07:00 +5°C° 0.2 mm 3 mps 716 mmHg 91%
    08:00 +5°C° 0.2 mm 3 mps 716 mmHg 90%
    09:00 +5°C° 0.1 mm 3 mps 716 mmHg 86%
    10:00 +6°C° 0.1 mm 4 mps 716 mmHg 83%
    11:00 +7°C° 0.1 mm 4 mps 717 mmHg 79%
    12:00 +6°C° 0.5 mm 4 mps 716 mmHg 80%
    13:00 +6°C° 0.5 mm 4 mps 716 mmHg 81%
    14:00 +6°C° 0.5 mm 4 mps 716 mmHg 82%
    15:00 +6°C° 0.3 mm 4 mps 716 mmHg 83%
    16:00 +5°C° 0.3 mm 3 mps 716 mmHg 84%
    17:00 +5°C° 0.3 mm 3 mps 716 mmHg 85%
    18:00 +5°C° 0 mm 2 mps 716 mmHg 86%
    19:00 +4°C° 0 mm 2 mps 716 mmHg 88%
    20:00 +3°C° 0 mm 2 mps 716 mmHg 89%
    21:00 +4°C° 0.1 mm 2 mps 716 mmHg 88%
    22:00 +4°C° 0.1 mm 2 mps 716 mmHg 88%
    23:00 +4°C° 0.1 mm 2 mps 715 mmHg 87%

    29 October, Sunday

    Time Temperature Precipitation Wind Pressure Humidity
    00:00 +4°C° 0.1 mm 2 mps 715 mmHg 88%
    01:00 +4°C° 0.1 mm 2 mps 715 mmHg 89%
    02:00 +3°C° 0.1 mm 2 mps 715 mmHg 90%
    03:00 +3°C° 0 mm 2 mps 714 mmHg 90%
    04:00 +2°C° 0 mm 3 mps 714 mmHg 89%
    05:00 +2°C° 0 mm 3 mps 713 mmHg 88%
    06:00 +3°C° 0 mm 3 mps 713 mmHg 88%
    07:00 +3°C° 0 mm 3 mps 713 mmHg 87%
    08:00 +3°C° 0 mm 4 mps 713 mmHg 86%
    09:00 +4°C° 0.1 mm 4 mps 712 mmHg 82%
    10:00 +5°C° 0.1 mm 5 mps 712 mmHg 78%
    11:00 +4°C° 0.1 mm 6 mps 712 mmHg 74%
    12:00 +4°C° 0.1 mm 6 mps 712 mmHg 73%
    13:00 +4°C° 0.1 mm 6 mps 712 mmHg 72%
    14:00 +5°C° 0.1 mm 6 mps 712 mmHg 71%
    15:00 +5°C° 0.2 mm 5 mps 712 mmHg 74%
    16:00 +5°C° 0.2 mm 5 mps 712 mmHg 77%
    17:00 +4°C° 0.2 mm 4 mps 712 mmHg 80%
    18:00 +4°C° 0.3 mm 3 mps 712 mmHg 81%
    19:00 +4°C° 0.3 mm 3 mps 712 mmHg 83%
    20:00 +4°C° 0.3 mm 3 mps 713 mmHg 85%
    21:00 +5°C° 0.4 mm 2 mps 713 mmHg 87%
    22:00 +4°C° 0.4 mm 2 mps 713 mmHg 88%
    23:00 +4°C° 0.4 mm 2 mps 713 mmHg 90%

    30 October, Monday

    Time Temperature Precipitation Wind Pressure Humidity
    00:00 +4°C° 0.7 mm 2 mps 713 mmHg 90%
    01:00 +4°C° 0.7 mm 2 mps 714 mmHg 89%
    02:00 +3°C° 0.7 mm 2 mps 714 mmHg 89%
    03:00 +3°C° 0.2 mm 2 mps 714 mmHg 89%
    04:00 +2°C° 0.2 mm 2 mps 713 mmHg 90%
    05:00 +2°C° 0.2 mm 2 mps 713 mmHg 90%
    06:00 +2°C° 0.1 mm 2 mps 714 mmHg 89%
    07:00 +3°C° 0.1 mm 2 mps 714 mmHg 88%
    08:00 +2°C° 0.1 mm 3 mps 714 mmHg 87%
    09:00 +2°C° 0.2 mm 3 mps 715 mmHg 84%
    10:00 +3°C° 0.2 mm 4 mps 715 mmHg 82%
    11:00 +4°C° 0.2 mm 4 mps 716 mmHg 79%
    12:00 +4°C° 0.4 mm 4 mps 716 mmHg 80%
    13:00 +3°C° 0.4 mm 4 mps 716 mmHg 81%
    14:00 +3°C° 0.4 mm 4 mps 717 mmHg 82%
    15:00 +3°C° 0.2 mm 3 mps 717 mmHg 84%
    16:00 +3°C° 0.2 mm 3 mps 718 mmHg 86%
    17:00 +3°C° 0.2 mm 3 mps 718 mmHg 87%
    18:00 +3°C° 0.2 mm 2 mps 719 mmHg 89%
    19:00 +3°C° 0.2 mm 2 mps 719 mmHg 91%
    20:00 +3°C° 0.2 mm 2 mps 720 mmHg 93%
    21:00 +3°C° 0.1 mm 2 mps 720 mmHg 93%
    22:00 +3°C° 0.1 mm 2 mps 720 mmHg 94%
    23:00 +2°C° 0.1 mm 3 mps 721 mmHg 94%
    Show more